Zurück zum Katalog

NTS 2 AKM

AktivHEO
NORAD 26376·ROCKET BODY·🇺🇸 United States

Gestartet Jun 23, 1977 von Vandenberg Space Force Base

Loading…

Nächste Überflüge (nächste 24 Stunden)

TLE

AktuellSource: Space-Track

Epoche: Sep 9, 2026, 09:03 UTC

1 26376U 77053C   26252.37742022  .00000034  00000-0  00000-0 0  9997
2 26376  62.7378 251.7730 0430569 218.2735 138.6083  2.04277166195873

Verfolge NTS 2 AKM in Echtzeit mit AllMySat

Download on the App Store